sat.trackr.live / text

‹ back to catalog

KINEIS-5B

NORAD 62085 · 2024-219E

PAYLOAD ACTIVE UNKNOWN

§ Identity

Operator
Country
FR
Launch date
2024-11-25
Launch site
RLLB
Launch vehicle
Mass (kg)
RCS (m²)

External: N2YO · Heavens-Above · Gunter

§ Orbital elements

Epoch: 2026-05-25T04:04:21.255744Z

Period
97.41 min
Inclination
98.0046°
Eccentricity
0.0001936
Mean motion
14.78272619 rev/d
Perigee alt
633.4 km
Apogee alt
636.1 km
Semi-major
7,012.9 km
B*
1.2594e-4
RAAN
309.1419°
Arg perigee
31.2121°
Mean anomaly
328.9204°
Rev number
8,060

§ Raw data

KINEIS-5B1 62085U 24219E   26145.16969046  .00000863  00000+0  12594-3 0  99982 62085  98.0046 309.1419 0001936  31.2121 328.9204 14.78272619 80605

JSON: /api/v1/satellites/62085 · /tle

For live sub-satellite position, see the globe view (requires WebGL).

§ Visibility from observer

Set your observer location to see the next 7 days of passes ≥ 10°. The values pass through the URL so the page stays shareable.

No JS? Fill the form by hand. The geolocation button needs JavaScript.

§ Radio — SatNOGS DB

ModeDescriptionDownlinkUplink
BPSK S-band telemetry 2.264 GHz

1 transmitter · refreshed weekly from db.satnogs.org